STARLINK-35985, 66815

Orbit data source: Space-Track

STARLINK-35985, 66815 is a payload satellite owned by SpaceX/Seattle (US) in LEO that was launched on Mon, 01 Dec 2025 UTC via an FALCON 9 launch vehicle from the Air Force Eastern Test Range (AFETR). Payload-class satellites include a variety of spacecraft equipped with specific instruments for various scientific and technological missions. These include communications satellites like Starlink; space stations such as the ISS; scientific satellites like the Hubble; Earth observation satellites from companies like Planet Labs, Umbra, and HawkEye 360; GPS; miniature CubeSats for education and research; and military/defense satellites.

Loading next visibility...
Identifier
66815, 2025-278AA
Orbit
LEO
Country
Flag of USUS
Related business
Manufacturer
SpaceX/Seattle
Mission
Operational Commercial Communications
Bus & Motor
STARLINK V2MO, Unknown motor
Mass
575 kg wet, ~530 kg dry
Launch date (UTC)
2025-12-01 (7 months ago)
Launch vehicle
FALCON 9
Launch site
Air Force Eastern Test Range (AFETR)
Object type
Payload
Rocket body
Debris
Shape & HBR
Box + 2 Pan, 17.7 m
Radar Cross Section
36.964 m², Large (>1 m²)

Expand to show TLE details & history
Last TLE update: 15 hours ago

TLE from 15 hours ago
0 STARLINK-35985
1 66815U 25278AA  26171.24308050  .00013314  00000-0  49208-3 0  9997
2 66815  42.9981 255.1650 0001188 244.7808 115.2920 15.27606768 32100
Epoch: 2026-06-20T05:50Z
TLE epoch observation values (Epoch: 2026-06-20T05:50:02.155Z)
Latitude
-0.00004°
Longitude
-100.80453°
Altitude
483.092 km
Speed
7.625 km/s
True Right ascension
17h 00m 39s
True Declination
0° 00' 00"
Sunlit
Object was in full shadow at epoch
Visualization orbit readout
Latitude
Unknown
Longitude
Unknown
Altitude
Unknown
Speed
Unknown
Apparent Right ascension
Unknown
Apparent Declination
Unknown
Sunlit
N/A
Visualization observer readout
Local Sidereal Time
07:15:49
Azimuth
Unknown
Elevation
Unknown
Doppler factor
Unknown
Orbital elements
Apogee altitude
485.73 km
Perigee altitude
484.099 km
Semi-major axis
6,863.051 km
Eccentricity
0.00012
Inclination
42.9981°
RAAN
255.165°
Arg. of periapsis
244.7808°
True anomaly
115.30431°
Mean anomaly
115.292°
Eccentric anomaly
115.29815°
Mean motion
3.8174 °/min
Orbital period
94.31 mins
BSTAR
0.00049208
Loading maneuver chart data...
Computing Atmospheric mass density...
Loading historical data...
Loading historical data...
Loading historical data...
Loading historical data...
Loading historical data...
Loading historical data...
Loading historical data...

Documentation

Showing up to 5 results
|